Wetbulb
72.13 72.72 72.67 71.98 71.74 72.30 72.40 70.77 69.54 71.26 69.29 70.19 72.29 72.27 73.03 73.02 73.57 73.03 72.69 73.05 72.21 71.94 72.31 72.15 71.57 72.15 71.89 72.39 70.90 71.26 70.98 70.63 66.64 67.77 71.97 71.94 69.80 72.36 69.29 66.00 64.69 62.47 63.36
72.86 72.27 71.75 72.64 72.76 72.75 72.08 72.61 71.97 73.00 72.52 71.81 72.68 73.17 73.02 73.22 73.34 73.25 72.77 73.32 72.44 71.79 71.52 71.12 70.78 74.04 71.44 70.76 71.46 70.50 70.95 70.06 68.83 67.28 69.51 70.41 70.98 72.13 69.93 67.57 65.55 63.62 62.19
72.70 72.30 71.68 71.83 71.60 71.05 72.18 72.48 73.21 73.15 73.06 73.17 73.31 72.03 72.20 72.78 72.61 72.99 73.34 73.17 73.26 73.01 72.79 71.72 71.65 71.50 70.74 70.33 70.86 70.68 71.07 71.63 70.31 68.69 67.49 70.68 70.04 71.90 71.33 69.12 65.11 62.62 62.68
71.99 71.73 71.02 70.97 71.78 71.51 72.76 73.60 74.46 73.49 72.69 72.66 72.95 72.87 72.83 72.91 73.09 72.67 73.07 72.88 72.31 72.89 72.88 72.07 72.31 72.52 71.42 71.51 71.62 71.07 71.60 71.14 70.65 69.85 69.00 68.71 69.43 70.44 70.00 68.06 64.63 66.03 62.12
70.51 70.95 71.25 71.22 71.38 71.47 71.32 71.76 72.26 73.32 73.19 72.31 72.21 73.00 74.02 73.42 74.03 72.43 72.72 72.29 71.76 71.90 72.66 72.64 72.35 72.19 71.18 70.52 71.35 71.45 70.48 69.56 68.96 68.26 67.97 67.59 67.57 67.47 67.27 68.10 68.71 67.59 64.87
67.96 71.83 71.84 72.08 72.55 72.74 72.95 72.46 72.67 72.71 73.19 73.42 73.21 72.96 72.60 73.70 66.96 68.81 69.08 70.91 70.99 71.11 70.67 71.17 72.63 72.38 71.74 69.07 69.07 68.82 69.08 68.73 68.30 67.90 67.03 66.49 66.76 66.25 65.59 66.62 67.02 67.18 66.52
71.80 71.34 71.24 72.58 72.22 72.68 72.73 72.45 72.10 71.25 71.33 71.00 71.38 71.59 71.43 70.41 66.56 66.92 68.93 68.86 70.28 70.13 70.08 70.34 71.65 71.19 66.22 68.29 69.30 66.48 66.24 67.56 67.49 66.92 66.89 66.23 66.76 66.30 67.14 66.44 67.32 67.03 66.42
69.78 69.70 69.82 69.21 69.81 70.75 70.98 69.51 70.03 70.85 70.43 70.72 70.76 71.18 70.58 65.50 64.14 65.17 65.13 67.41 67.92 68.93 64.73 64.49 66.98 61.76 57.84 61.92 66.19 68.17 67.54 64.20 61.97 63.75 63.19 61.91 60.35 60.86 63.32 66.38 65.82 67.10 67.99
69.88 70.09 70.39 71.01 69.97 69.38 68.75 69.38 70.20 70.25 69.66 67.09 63.47 63.67 66.66 60.35 59.63 60.44 63.74 67.27 67.68 61.85 58.30 57.75 58.24 56.36 57.05 60.38 65.10 66.39 63.31 60.98 61.03 60.28 59.71 58.80 58.44 58.38 59.10 62.54 57.88 61.77 63.20
69.23 69.44 69.86 69.77 68.89 68.24 68.15 68.20 67.81 65.66 63.27 61.57 59.53 59.23 59.35 58.95 55.87 56.67 61.04 66.27 66.57 62.25 58.74 56.73 57.17 55.18 54.80 56.33 60.81 62.70 62.78 62.53 62.95 62.90 62.36 58.31 57.67 57.15 57.70 56.48 56.77 57.42 58.85
69.80 68.94 68.92 69.62 68.49 67.54 66.55 66.04 63.59 61.29 59.98 58.64 57.38 56.76 56.49 56.19 55.49 54.28 56.57 63.38 63.90 63.78 61.02 58.14 56.43 54.55 53.35 53.81 55.94 58.75 59.41 61.51 62.71 60.39 58.80 57.76 56.71 55.65 55.22 54.08 55.76 56.48 56.75
65.69 65.94 65.44 66.16 66.96 65.61 64.09 63.72 62.06 60.26 58.66 57.84 57.44 56.78 56.37 55.65 53.76 53.32 53.83 56.01 61.01 60.60 57.22 56.19 54.34 52.07 51.62 53.40 56.53 55.73 57.74 59.89 60.12 58.57 57.30 57.19 56.13 55.42 54.91 54.30 54.63 55.98 57.19
62.28 62.73 63.53 63.75 64.74 65.39 64.15 62.49 61.21 60.05 59.14 59.12 58.12 57.15 56.18 56.57 56.91 53.86 53.14 54.39 55.82 55.85 56.33 54.49 52.34 51.85 52.91 54.87 55.28 56.10 57.35 58.66 58.62 57.40 56.56 56.22 56.26 55.73 56.11 54.20 54.66 53.85 53.75
58.44 58.55 59.10 59.30 57.79 59.03 59.43 59.00 58.88 59.47 61.21 60.03 58.24 55.13 55.03 56.20 54.08 54.53 55.14 54.40 55.32 55.24 55.47 54.31 54.30 55.48 54.75 54.97 55.18 54.90 56.44 57.17 56.60 55.77 54.34 55.14 54.98 55.21 55.17 55.30 54.45 53.32 51.21
57.99 57.44 56.96 56.27 54.59 52.05 48.64 47.86 53.56 48.85 51.03 58.20 57.06 56.71 53.33 50.80 47.35 46.21 47.89 51.87 52.70 51.98 53.66 53.96 55.12 55.12 54.45 53.79 54.04 54.43 54.48 53.58 53.94 53.72 53.29 54.47 53.29 53.23 52.11 53.78 51.70 51.09 50.87
57.38 57.48 57.69 56.65 56.20 55.14 53.24 49.74 46.31 45.68 44.98 44.49 46.92 50.53 47.22 46.69 44.30 42.46 42.13 43.89 46.09 47.28 52.03 51.32 51.24 51.96 51.96 51.84 51.13 51.42 51.10 52.48 52.91 51.73 50.01 49.71 48.91 47.86 47.38 48.60 48.82 48.42 47.41
57.03 57.13 57.37 57.95 59.20 56.73 55.04 53.00 50.90 49.22 45.85 44.33 44.46 47.29 48.21 45.58 42.48 41.13 41.28 42.10 42.65 45.81 50.52 49.70 49.67 50.09 49.85 50.34 50.37 50.00 49.53 47.43 47.46 47.05 47.01 46.44 46.57 47.65 46.27 45.76 46.31 46.85 46.13
54.56 53.69 51.78 53.18 54.17 55.52 56.20 56.03 54.55 51.61 50.21 49.55 45.53 45.37 43.15 41.86 40.84 40.57 40.99 40.71 44.39 44.30 47.35 50.37 50.27 50.06 50.01 49.62 49.39 48.30 47.64 47.07 47.66 47.36 47.78 48.68 46.49 45.71 45.85 46.18 46.44 44.76 45.33
55.84 54.13 54.50 53.85 52.82 53.29 54.32 54.46 54.24 52.16 50.22 47.40 42.29 42.15 43.67 42.53 41.04 39.99 41.01 40.93 45.49 49.10 47.31 50.01 50.75 51.32 50.87 51.72 50.64 49.67 49.07 48.43 48.72 48.71 48.51 47.46 46.93 45.77 44.23 43.98 43.49 43.35 42.91
51.20 54.23 54.60 51.71 51.48 52.77 52.86 53.89 53.04 49.47 47.09 44.62 44.47 44.36 40.86 41.84 43.78 45.52 43.53 48.56 49.17 49.99 50.64 51.28 52.27 52.86 51.59 51.37 51.09 50.07 49.53 47.43 47.28 48.27 48.32 46.51 46.37 45.20 44.56 44.10 43.14 42.12 41.70
51.58 50.18 55.11 49.78 51.81 51.12 50.86 51.01 51.13 51.58 51.88 49.66 48.13 48.33 47.12 47.06 48.37 48.89 51.64 48.87 48.83 49.50 49.83 50.00 50.54 51.72 53.24 53.36 52.54 53.14 50.18 49.81 51.41 48.64 47.29 47.35 46.15 44.40 44.15 43.78 43.08 42.29 42.14
51.89 51.55 51.06 52.04 51.09 51.24 51.50 50.09 49.69 50.84 51.38 48.62 46.45 44.79 44.51 45.02 48.32 49.56 50.20 49.80 51.00 49.82 51.32 50.73 50.92 51.35 52.31 53.37 52.16 51.22 50.48 48.05 48.44 48.64 47.46 46.38 45.86 45.90 44.95 43.83 42.94 42.08 42.19
56.45 54.10 53.64 53.88 52.87 51.70 50.45 50.57 50.54 50.88 51.34 51.64 49.73 47.44 45.64 47.36 49.51 49.82 50.98 51.34 51.11 50.64 51.14 50.34 49.66 49.01 50.95 53.93 53.51 52.06 49.20 47.54 47.71 47.53 46.30 45.91 44.91 44.28 44.12 42.89 42.15 41.67 41.28
54.95 55.61 55.80 54.97 52.24 51.95 51.65 51.15 50.78 49.58 51.57 53.83 54.30 53.99 52.91 52.88 54.14 54.43 53.38 53.64 53.36 53.08 53.58 50.86 51.82 50.60 51.52 51.79 50.53 50.08 49.74 49.29 48.03 47.66 46.87 45.97 44.82 43.88 43.54 42.18 41.59 41.86 41.90
56.05 55.33 55.42 55.38 54.77 54.68 54.11 53.12 52.25 52.74 53.69 53.45 54.56 52.65 51.52 52.03 53.50 54.00 53.65 51.65 51.27 50.90 50.96 52.58 51.12 51.43 51.45 52.19 52.42 50.65 47.01 43.90 48.86 45.69 46.34 44.63 45.39 44.51 43.16 42.19 42.22 42.05 41.73
57.30 56.50 56.05 55.86 54.16 54.28 53.28 52.88 52.35 53.40 52.28 53.13 52.72 51.62 51.85 53.95 51.65 49.90 49.95 49.76 49.24 49.35 49.64 50.03 50.67 51.04 51.03 49.25 48.35 45.05 36.06 37.14 43.67 41.77 46.64 45.51 43.16 42.79 42.96 42.69 42.79 42.10 41.85
MSLP
1013.33 1014.15 1014.97 1015.56 1016.02 1016.51 1017.12 1017.43 1017.95 1018.07 1017.72 1017.79 1018.31 1018.58 1018.66 1018.66 1018.78 1019.02 1019.26 1019.31 1019.37 1019.20 1018.94 1018.87 1018.85 1018.63 1018.41 1018.48 1018.41 1018.30 1018.32 1018.17 1018.45 1018.24 1017.90 1017.98 1017.91 1018.14 1018.84 1019.18 1019.11 1019.17 1019.16
1013.02 1013.70 1014.39 1014.90 1015.41 1015.97 1016.52 1016.84 1017.14 1017.44 1017.47 1017.49 1017.98 1018.24 1018.50 1018.51 1018.62 1018.77 1018.85 1018.89 1018.79 1018.68 1018.54 1018.51 1018.54 1018.41 1018.40 1018.23 1018.29 1018.46 1018.28 1018.16 1018.42 1018.29 1017.99 1018.11 1017.89 1018.04 1018.84 1019.30 1018.94 1019.55 1019.76
1013.00 1013.61 1014.21 1014.62 1014.84 1015.19 1015.65 1016.07 1016.41 1016.73 1017.01 1017.25 1017.56 1017.84 1017.88 1018.07 1018.21 1018.19 1018.22 1018.21 1018.15 1018.09 1018.06 1018.17 1018.31 1018.29 1018.20 1017.99 1017.86 1017.87 1017.93 1017.98 1018.13 1018.18 1018.03 1017.65 1017.75 1017.68 1018.76 1018.93 1019.33 1020.44 1020.33
1012.82 1013.19 1013.84 1014.28 1014.45 1014.57 1014.78 1015.19 1015.64 1016.07 1016.49 1016.67 1016.81 1017.05 1017.19 1017.35 1017.46 1017.51 1017.59 1017.60 1017.59 1017.62 1017.70 1017.81 1017.80 1017.79 1017.77 1017.62 1017.45 1017.35 1017.45 1017.72 1017.93 1018.11 1017.97 1017.89 1017.97 1018.04 1018.02 1018.88 1019.86 1019.82 1020.93
1012.86 1012.86 1012.82 1013.56 1013.73 1014.14 1014.43 1014.69 1015.11 1015.48 1015.86 1016.10 1016.30 1016.47 1016.56 1016.70 1016.93 1017.19 1017.30 1017.25 1017.28 1017.44 1017.47 1017.53 1017.46 1017.40 1017.36 1017.30 1017.32 1017.31 1017.42 1017.61 1017.75 1017.91 1018.06 1018.04 1018.10 1018.22 1018.27 1018.57 1019.01 1019.27 1019.70
1012.70 1012.75 1012.07 1012.89 1013.36 1013.71 1014.09 1014.36 1014.70 1015.07 1015.48 1015.80 1016.08 1016.31 1016.56 1016.63 1016.81 1017.13 1017.35 1017.27 1017.30 1017.29 1017.39 1017.33 1017.43 1017.47 1017.32 1017.14 1017.18 1017.19 1017.30 1017.45 1017.58 1017.79 1017.90 1018.01 1017.99 1017.98 1018.04 1018.30 1018.65 1018.77 1019.03
1013.37 1013.06 1012.87 1012.86 1013.09 1013.28 1013.87 1014.20 1014.71 1015.28 1015.72 1016.12 1016.34 1016.58 1016.75 1016.93 1017.02 1017.21 1017.42 1017.48 1017.38 1017.18 1017.28 1017.40 1017.44 1017.79 1017.81 1017.62 1017.39 1017.41 1017.25 1017.32 1017.45 1017.63 1017.87 1018.23 1018.14 1018.30 1018.26 1018.00 1017.92 1017.86 1017.83
1012.39 1010.38 1013.48 1013.41 1013.17 1013.44 1013.91 1014.55 1014.93 1015.27 1015.73 1016.14 1016.32 1016.54 1016.75 1017.40 1017.36 1017.53 1017.32 1017.38 1017.42 1017.57 1017.86 1017.84 1017.81 1018.23 1018.06 1017.76 1017.48 1017.47 1017.80 1017.84 1017.82 1017.76 1017.90 1018.48 1018.60 1018.31 1017.99 1017.80 1017.87 1017.66 1017.55
1012.51 1012.57 1012.73 1012.86 1013.50 1013.96 1014.33 1014.71 1014.91 1015.28 1015.83 1016.49 1016.91 1017.02 1017.10 1017.68 1017.68 1017.47 1017.26 1017.44 1017.63 1018.12 1018.30 1018.23 1018.23 1018.49 1018.19 1017.81 1017.76 1017.72 1018.18 1018.45 1018.21 1018.34 1018.43 1018.59 1018.71 1018.43 1017.97 1017.59 1018.06 1018.06 1018.30
1012.50 1012.47 1012.55 1013.24 1014.01 1014.53 1014.65 1014.97 1015.42 1015.84 1016.38 1017.05 1017.64 1017.70 1017.79 1017.89 1017.74 1017.46 1017.42 1017.64 1017.84 1018.18 1018.60 1018.72 1018.77 1018.94 1018.66 1018.40 1018.31 1018.26 1018.66 1018.80 1018.65 1018.65 1018.98 1018.82 1018.90 1018.96 1018.75 1018.88 1018.91 1018.87 1018.97
1012.98 1013.04 1013.26 1014.06 1014.45 1015.00 1015.46 1015.89 1016.21 1016.51 1017.05 1017.72 1018.09 1018.32 1018.49 1018.45 1018.28 1017.93 1017.75 1017.80 1018.05 1018.26 1018.81 1019.10 1019.32 1019.17 1019.05 1018.93 1018.89 1018.95 1019.03 1019.26 1019.03 1018.98 1019.27 1019.47 1019.58 1019.70 1019.67 1019.61 1019.44 1019.60 1019.70
1014.19 1014.53 1014.72 1015.15 1015.45 1015.83 1016.19 1016.29 1016.80 1017.22 1017.64 1018.42 1018.59 1018.87 1019.20 1019.33 1019.19 1018.98 1018.56 1018.34 1018.31 1018.58 1019.25 1019.39 1019.50 1019.65 1019.54 1019.18 1019.19 1019.37 1019.20 1019.32 1019.44 1019.44 1019.63 1019.90 1020.08 1020.13 1020.19 1020.13 1020.01 1019.94 1020.08
1015.19 1015.64 1015.62 1015.83 1015.94 1016.16 1016.40 1016.83 1017.43 1017.72 1018.24 1018.61 1019.00 1019.34 1019.78 1019.98 1019.92 1019.65 1019.38 1019.25 1019.19 1019.44 1019.72 1020.02 1020.16 1020.19 1020.05 1019.94 1020.09 1019.83 1019.58 1019.34 1019.55 1019.56 1020.09 1020.45 1020.57 1020.55 1020.53 1020.47 1020.26 1020.12 1019.93
1016.22 1016.45 1016.59 1016.60 1016.91 1016.99 1017.30 1017.54 1017.81 1018.21 1018.55 1018.81 1019.04 1019.58 1019.89 1020.04 1020.41 1020.50 1020.26 1020.07 1019.99 1020.04 1020.21 1020.20 1020.23 1020.17 1020.35 1020.39 1020.39 1020.63 1020.61 1020.35 1019.94 1020.29 1020.34 1020.26 1020.41 1020.53 1020.63 1020.68 1020.53 1020.08 1020.30
1016.79 1017.33 1017.34 1017.44 1017.90 1018.45 1018.88 1019.15 1019.11 1019.52 1019.31 1019.20 1019.40 1019.62 1020.01 1020.47 1021.01 1020.97 1020.83 1020.75 1020.69 1020.76 1020.66 1020.59 1020.58 1020.54 1020.75 1020.78 1020.96 1020.85 1020.85 1021.01 1021.00 1021.06 1021.29 1021.00 1020.67 1020.61 1020.63 1020.58 1020.51 1020.49 1020.54
1017.24 1017.69 1017.86 1018.06 1018.31 1018.81 1019.22 1019.61 1019.82 1019.99 1019.79 1019.62 1019.67 1019.79 1020.45 1020.57 1020.82 1021.02 1021.09 1021.05 1021.02 1021.04 1021.13 1021.31 1021.17 1021.09 1021.09 1021.22 1021.41 1021.37 1021.39 1021.48 1021.49 1021.42 1021.35 1021.66 1021.60 1021.35 1021.15 1021.05 1021.04 1021.07 1021.02
1017.34 1017.77 1018.01 1018.09 1018.38 1018.68 1019.33 1019.65 1020.30 1020.59 1020.16 1020.18 1020.35 1020.38 1020.63 1020.87 1021.02 1020.96 1021.37 1021.41 1021.41 1021.23 1021.31 1021.36 1021.32 1021.28 1021.30 1021.42 1021.59 1021.69 1021.63 1021.43 1021.47 1021.77 1021.68 1021.46 1021.67 1021.63 1021.55 1021.36 1021.39 1021.47 1021.34
1017.49 1017.71 1017.88 1018.13 1018.32 1018.47 1018.98 1019.47 1019.80 1020.19 1020.23 1020.46 1020.76 1020.84 1020.92 1021.25 1021.45 1021.44 1021.69 1021.57 1021.53 1021.29 1021.47 1021.35 1021.32 1021.25 1021.24 1021.30 1021.42 1021.72 1021.68 1021.74 1021.67 1021.80 1021.86 1021.75 1021.66 1021.85 1021.99 1021.87 1021.76 1021.80 1021.82
1017.49 1017.78 1017.72 1018.02 1018.14 1018.27 1018.81 1019.29 1019.68 1019.51 1019.83 1020.30 1020.77 1020.86 1020.82 1021.15 1021.31 1021.72 1021.96 1021.59 1021.41 1021.20 1021.26 1021.04 1020.79 1020.85 1020.89 1020.93 1021.16 1021.35 1021.43 1021.68 1021.62 1021.70 1021.81 1021.84 1021.85 1021.99 1022.14 1022.27 1022.14 1022.03 1022.03
1017.18 1017.31 1017.38 1017.83 1017.93 1018.06 1018.57 1018.80 1018.93 1019.31 1019.70 1020.22 1020.39 1020.80 1020.79 1021.13 1021.05 1021.18 1021.12 1021.06 1020.85 1020.79 1020.65 1020.54 1020.51 1020.52 1020.63 1020.70 1021.03 1021.14 1021.26 1021.54 1021.64 1021.73 1021.82 1021.76 1021.96 1022.02 1022.30 1022.34 1022.35 1022.41 1022.31
1017.09 1017.29 1017.33 1017.83 1017.89 1017.74 1017.84 1018.29 1018.48 1018.81 1019.50 1019.70 1020.00 1019.89 1019.84 1020.12 1020.28 1020.33 1020.72 1020.35 1020.29 1020.51 1020.52 1020.46 1020.28 1020.46 1020.46 1020.43 1020.64 1020.86 1021.17 1021.39 1021.34 1021.39 1021.54 1021.64 1021.86 1022.14 1022.07 1022.07 1022.12 1022.06 1022.14
1016.84 1017.07 1017.14 1017.42 1017.48 1017.78 1018.00 1018.10 1018.32 1018.54 1018.80 1019.25 1019.55 1019.43 1019.56 1019.62 1019.76 1019.90 1019.95 1019.75 1019.91 1019.92 1019.95 1020.07 1020.11 1020.25 1019.98 1020.04 1020.29 1020.59 1020.91 1021.09 1021.07 1021.36 1021.50 1021.60 1021.67 1021.78 1021.78 1021.87 1021.94 1021.92 1021.94
1016.46 1016.87 1017.05 1017.31 1017.31 1017.66 1017.66 1017.83 1018.26 1018.23 1018.35 1018.61 1018.78 1019.17 1019.44 1019.47 1019.41 1019.51 1019.47 1019.41 1019.46 1019.59 1019.50 1019.57 1019.60 1019.70 1019.59 1019.69 1019.81 1020.01 1020.36 1020.71 1020.67 1020.75 1021.09 1021.24 1021.41 1021.48 1021.58 1021.65 1021.60 1021.68 1021.68
1016.03 1016.15 1016.40 1016.78 1017.03 1017.22 1017.34 1017.56 1017.77 1018.04 1018.20 1018.38 1018.64 1018.79 1019.08 1019.17 1019.00 1019.05 1019.31 1019.27 1019.26 1019.24 1019.36 1019.54 1019.55 1019.52 1019.45 1019.28 1019.31 1019.33 1019.48 1019.82 1019.87 1019.98 1020.28 1020.86 1021.00 1021.12 1021.21 1021.30 1021.26 1021.24 1021.31
1015.72 1015.77 1015.90 1016.01 1016.57 1016.88 1017.18 1017.36 1017.54 1017.54 1017.94 1018.21 1018.50 1018.67 1018.76 1018.79 1018.86 1019.12 1019.42 1019.49 1019.72 1020.00 1019.90 1019.93 1020.07 1019.89 1019.79 1019.36 1019.07 1018.95 1018.96 1019.20 1019.32 1019.58 1019.87 1020.39 1020.61 1020.78 1020.84 1020.93 1020.95 1020.85 1020.84
1015.54 1015.56 1015.69 1016.09 1016.36 1016.54 1016.69 1016.94 1017.13 1017.23 1017.47 1017.80 1017.99 1018.35 1018.71 1018.71 1019.18 1019.21 1019.69 1019.93 1020.12 1020.18 1020.21 1020.16 1019.99 1019.85 1019.73 1019.67 1019.39 1019.07 1019.16 1018.98 1019.27 1019.55 1020.17 1020.04 1020.57 1020.62 1020.87 1020.78 1020.65 1020.65 1020.60
Wind_Speed
13 11 11 9 7 6 6 6 7 6 6 4 5 6 5 3 4 4 3 4 4 4 3 3 5 5 4 0 1 2 3 2 2 3 3 4 2 4 6 3 5 4 5
13 12 11 12 11 9 8 8 7 7 7 7 7 7 5 3 3 4 6 5 4 4 4 3 5 3 2 2 2 1 2 2 1 2 2 0 2 6 7 6 6 6 3
10 11 10 10 10 8 9 8 8 8 6 6 5 6 6 6 6 5 6 6 6 4 4 4 4 4 3 2 2 2 1 2 2 1 3 1 2 1 4 5 6 3 4
8 10 11 9 11 8 8 10 7 7 7 7 7 7 8 7 7 6 6 6 6 5 3 3 3 3 4 4 4 4 2 1 1 0 2 2 2 2 3 6 4 1 3
6 10 12 11 9 7 7 7 7 7 7 8 7 6 6 6 4 5 6 5 4 5 3 3 3 1 4 4 2 4 3 2 2 2 2 1 1 1 2 2 4 7 7
15 15 11 10 10 9 7 7 7 6 6 5 4 3 4 3 8 2 4 4 2 1 2 4 4 6 6 4 4 2 3 2 2 1 2 2 2 2 2 3 3 3 3
8 4 4 6 7 7 6 6 5 3 2 3 4 5 6 1 1 2 3 2 3 4 2 3 4 7 8 6 5 4 1 6 5 1 1 3 2 3 2 3 4 4 4
8 8 5 1 3 3 3 1 1 2 1 1 2 2 2 5 5 4 3 3 3 5 6 5 5 6 6 5 5 5 5 5 6 5 6 5 4 4 1 1 1 3 2
4 5 4 7 5 4 3 4 3 3 5 6 6 7 6 7 9 7 5 4 5 6 6 7 6 5 9 8 5 4 6 4 5 7 12 14 14 15 12 3 5 4 2
5 7 8 8 6 4 4 6 6 6 7 6 6 6 8 5 9 7 6 3 1 5 5 6 14 8 11 11 8 7 7 3 3 5 6 9 9 10 15 9 5 4 2
4 6 7 7 7 7 6 6 6 8 8 7 7 7 7 7 8 10 7 4 3 4 3 3 3 8 9 11 10 6 4 2 4 6 6 5 6 6 5 5 6 4 3
9 9 9 7 6 6 7 7 8 7 8 5 6 6 6 7 11 10 9 7 5 5 3 3 4 6 7 7 6 5 7 5 3 4 5 4 3 2 2 2 3 4 3
9 7 7 6 5 5 6 6 5 5 5 5 4 5 3 2 4 11 14 13 13 7 5 6 5 6 7 7 8 7 5 3 3 4 3 2 2 2 1 1 1 2 1
7 6 5 6 7 8 6 6 5 4 3 3 5 4 3 4 4 5 4 4 7 5 5 3 4 5 7 6 6 7 5 4 5 4 3 2 1 1 2 2 2 1 1
7 4 4 5 6 7 7 5 5 4 2 3 3 4 4 4 2 2 4 3 3 3 4 3 3 4 4 4 4 4 4 4 4 3 3 3 3 2 2 3 3 4 4
6 3 3 4 5 5 6 6 11 7 5 10 9 7 4 9 7 4 5 6 5 5 3 2 2 3 4 3 3 3 3 4 3 3 3 3 3 3 3 3 3 2 3
6 4 3 3 5 6 5 6 6 4 9 10 9 9 7 7 5 5 4 5 5 6 2 2 2 3 2 2 2 1 1 1 2 2 2 1 2 3 4 3 3 3 3
5 7 5 3 4 4 5 6 6 5 4 3 3 3 5 5 2 2 3 3 2 0 1 2 3 4 4 3 2 2 1 0 0 1 1 1 1 2 3 4 3 1 2
2 3 5 5 5 5 4 4 3 4 5 4 2 2 3 4 2 2 1 1 2 2 3 4 4 4 4 4 3 3 3 3 2 1 2 1 1 2 3 4 3 3 3
5 6 3 3 4 4 5 6 5 5 5 5 4 3 3 2 1 2 3 2 3 4 4 4 4 2 4 5 4 4 2 2 2 1 2 2 2 3 2 3 2 1 1
4 2 1 1 2 2 3 4 2 4 5 5 5 6 10 4 2 4 4 3 4 3 2 1 2 2 3 5 4 4 4 3 4 4 3 2 3 2 2 1 1 2 1
4 5 4 3 3 4 3 2 1 4 8 6 4 3 6 2 1 3 4 3 5 4 5 4 2 3 4 5 5 4 4 1 1 3 2 2 2 3 3 3 3 2 2
3 4 3 4 5 6 2 2 1 2 4 6 6 4 3 3 3 4 5 4 4 3 4 4 2 3 1 4 5 5 5 5 5 6 4 3 1 0 2 2 2 2 3
4 3 5 5 5 5 5 4 3 3 5 7 6 5 4 3 2 4 1 1 1 2 2 2 2 4 3 5 5 5 5 6 6 6 7 3 2 1 1 2 3 3 3
4 4 2 6 6 5 5 4 4 5 5 5 4 3 2 2 3 4 5 5 6 5 6 5 4 6 6 11 3 7 9 13 8 8 5 4 3 3 2 2 3 3 2
5 5 3 4 5 5 5 5 5 6 6 5 5 4 1 4 4 6 5 5 5 5 5 4 6 8 8 5 7 8 8 9 8 7 1 3 0 2 3 4 4 1 4
Wind_Direction
178 171 169 177 185 187 169 191 190 175 192 182 202 221 219 211 235 190 227 261 231 236 282 316 306 291 286 284 4 12 27 11 83 309 170 226 276 149 123 126 106 94 96
179 176 171 175 181 186 179 191 203 199 192 180 206 186 195 213 215 225 216 228 238 252 254 277 293 296 304 284 103 72 59 5 110 262 244 152 220 150 149 166 126 100 86
176 173 180 181 187 186 186 195 192 188 188 209 209 185 203 211 220 232 217 219 227 235 241 226 268 296 268 276 290 306 208 168 180 164 280 81 236 57 142 100 65 39 95
186 166 178 177 191 196 192 197 183 181 190 205 204 195 200 204 212 233 239 221 225 237 212 217 246 265 262 258 259 265 264 251 150 209 297 300 49 356 92 131 118 181 243
340 191 176 192 182 183 180 175 177 175 188 199 211 224 211 193 203 240 256 238 230 254 256 279 267 166 173 218 231 265 251 236 207 218 247 268 176 138 212 197 169 184 201
248 227 179 179 175 178 182 186 186 198 201 193 202 221 254 204 135 150 358 355 330 193 260 303 316 316 325 273 260 255 252 246 261 194 235 233 226 169 181 197 225 173 200
197 101 121 176 182 161 161 153 151 138 34 343 301 283 264 244 160 1 337 335 337 310 359 28 18 45 28 0 334 305 292 83 76 121 300 13 348 33 270 248 239 193 218
150 116 134 97 50 85 118 185 79 91 41 353 302 315 307 66 70 40 3 38 1 33 60 52 60 44 18 355 345 5 77 54 35 63 88 68 45 338 288 230 261 265 278
68 70 82 103 103 101 92 94 86 86 48 51 34 35 53 54 32 30 34 43 58 86 69 48 61 53 3 22 42 25 102 69 68 77 100 94 55 39 24 48 17 38 350
54 61 62 66 77 70 105 95 74 79 80 77 66 50 57 60 27 42 52 49 64 103 77 77 60 55 36 35 61 57 77 40 132 92 85 65 57 48 45 47 17 41 21
95 84 79 81 82 76 71 68 78 85 84 74 73 55 53 36 29 31 25 89 111 105 99 77 52 77 72 63 64 67 93 9 22 82 87 72 53 47 47 45 50 51 59
66 67 64 61 89 101 106 90 84 90 90 89 85 67 50 38 31 22 38 59 79 96 93 83 78 64 67 87 90 97 91 99 98 91 82 78 87 87 77 101 98 92 71
68 50 65 58 59 75 89 113 119 109 111 114 110 98 89 82 53 53 48 46 52 70 65 74 76 73 75 63 48 44 54 76 85 87 87 60 25 348 125 0 25 63 108
73 64 54 56 49 49 51 43 61 52 105 128 114 113 106 74 45 18 32 36 57 76 98 88 88 101 74 58 50 25 9 28 70 74 95 116 125 72 45 354 342 246 182
82 83 79 77 77 73 57 32 57 48 15 64 76 110 122 97 98 39 21 62 67 74 69 39 45 60 65 66 60 60 56 49 58 58 19 16 43 43 22 349 6 360 6
115 114 122 125 116 108 98 78 47 54 56 67 82 104 48 105 128 88 52 47 38 10 61 97 83 78 78 74 60 49 42 36 26 49 58 34 19 16 11 3 25 41 36
124 122 136 135 146 133 128 117 110 31 60 59 73 106 110 148 126 92 50 6 324 355 140 137 134 133 137 121 99 68 9 74 32 21 28 50 17 10 16 357 357 350 350
152 168 138 145 125 126 143 148 147 150 127 106 26 89 112 134 137 39 354 332 305 61 265 201 204 179 176 171 177 164 121 327 311 286 332 314 348 26 3 333 328 317 14
171 142 140 152 161 161 158 144 169 141 133 127 107 13 172 205 202 158 149 245 299 243 252 243 206 194 195 181 163 156 166 204 208 216 327 334 10 82 18 10 10 34 39
113 101 111 161 174 180 173 174 166 174 136 145 153 188 166 150 195 197 217 240 108 62 42 35 25 162 178 154 163 172 182 192 214 231 172 118 94 84 31 347 360 323 347
140 164 195 114 167 126 106 96 131 154 137 157 170 189 181 163 256 192 203 166 124 138 129 52 26 51 134 146 171 166 189 224 222 184 153 137 158 178 239 247 309 285 241
181 181 196 160 136 88 78 121 143 133 148 155 168 164 180 197 222 191 179 187 176 179 174 183 238 244 211 181 166 173 220 248 355 139 160 190 196 218 214 222 244 252 231
176 215 235 162 149 155 147 120 77 214 167 163 163 163 177 226 237 220 169 153 161 183 185 185 199 300 325 177 182 186 180 166 157 143 144 147 152 16 242 218 239 270 258
275 243 194 176 164 175 178 182 237 229 143 120 148 137 143 144 86 91 60 332 53 13 5 278 252 274 229 196 201 196 166 161 159 149 143 160 205 80 42 281 273 287 284
261 286 29 165 171 186 176 187 123 120 117 116 115 117 97 61 65 68 66 69 63 44 35 39 33 18 14 11 288 196 171 162 160 163 152 164 168 219 225 240 250 266 284
248 264 226 179 177 156 155 150 153 139 136 149 144 130 198 92 96 92 77 62 55 41 31 24 21 14 19 13 334 295 207 184 154 147 92 115 56 359 319 281 278 263 298